TimeEST,TemperatureF,Dew PointF,Humidity,Sea Level PressureIn,VisibilityMPH,Wind Direction,Wind SpeedMPH,Gust SpeedMPH,PrecipitationIn,Events,Conditions,WindDirDegrees,DateUTC
12:54 AM,14.0,-4.0,45,30.25,-9999.0,West,12.7,20.7,N/A,,Unknown,280,2014-01-30 05:54:00
1:54 AM,14.0,-4.0,45,30.28,-9999.0,West,11.5,-,N/A,,Unknown,270,2014-01-30 06:54:00
2:54 AM,12.9,-5.1,45,30.31,-9999.0,WSW,8.1,-,N/A,,Unknown,240,2014-01-30 07:54:00
3:54 AM,12.0,-5.1,46,30.33,-9999.0,WSW,10.4,-,N/A,,Unknown,250,2014-01-30 08:54:00
4:54 AM,12.0,-4.0,49,30.34,-9999.0,West,13.8,-,N/A,,Unknown,270,2014-01-30 09:54:00
5:54 AM,10.9,-4.0,51,30.37,-9999.0,West,12.7,-,N/A,,Unknown,260,2014-01-30 10:54:00
6:54 AM,10.9,-4.0,51,30.40,-9999.0,WSW,11.5,-,N/A,,Unknown,250,2014-01-30 11:54:00
7:54 AM,10.9,-2.9,54,30.43,-9999.0,WSW,11.5,-,N/A,,Unknown,250,2014-01-30 12:54:00
8:54 AM,15.1,-0.9,49,30.44,-9999.0,West,8.1,-,N/A,,Unknown,280,2014-01-30 13:54:00
9:54 AM,19.0,1.0,46,30.44,-9999.0,WNW,6.9,-,N/A,,Unknown,290,2014-01-30 14:54:00
10:54 AM,19.9,1.0,44,30.44,-9999.0,WSW,6.9,-,N/A,,Unknown,250,2014-01-30 15:54:00
12:54 PM,25.0,3.0,39,30.38,-9999.0,SSW,8.1,-,N/A,,Unknown,210,2014-01-30 17:54:00
1:54 PM,27.0,3.0,36,30.37,-9999.0,SW,12.7,20.7,N/A,,Unknown,220,2014-01-30 18:54:00
2:54 PM,27.0,3.9,37,30.36,-9999.0,SSW,12.7,-,N/A,,Unknown,210,2014-01-30 19:54:00
3:54 PM,26.1,3.9,39,30.35,-9999.0,South,6.9,-,N/A,,Unknown,180,2014-01-30 20:54:00
4:54 PM,25.0,3.9,41,30.34,-9999.0,South,9.2,-,N/A,,Unknown,180,2014-01-30 21:54:00
5:54 PM,21.9,6.1,51,30.33,-9999.0,South,16.1,23.0,N/A,,Unknown,180,2014-01-30 22:54:00
6:54 PM,19.9,8.1,60,30.32,-9999.0,South,17.3,-,N/A,,Unknown,180,2014-01-30 23:54:00
7:54 PM,19.0,9.0,65,30.29,-9999.0,South,13.8,-,N/A,,Unknown,190,2014-01-31 00:54:00
8:54 PM,19.0,9.0,65,30.27,-9999.0,South,15.0,-,N/A,,Unknown,190,2014-01-31 01:54:00
9:54 PM,18.0,10.0,71,30.27,-9999.0,SSW,16.1,-,N/A,,Unknown,200,2014-01-31 02:54:00
10:54 PM,18.0,10.9,74,30.24,-9999.0,SSW,16.1,-,N/A,,Unknown,200,2014-01-31 03:54:00
11:54 PM,19.0,12.0,74,30.21,-9999.0,SSW,12.7,-,N/A,,Unknown,210,2014-01-31 04:54:00